TimeEDT,TemperatureF,Dew PointF,Humidity,Sea Level PressureIn,VisibilityMPH,Wind Direction,Wind SpeedMPH,Gust SpeedMPH,PrecipitationIn,Events,Conditions,WindDirDegrees,DateUTC
12:10 AM,57.2,55.4,94,29.98,10.0,NNW,10.4,17.3,0.00,,Overcast,330,2013-05-24 04:10:00
12:28 AM,57.2,53.6,88,29.99,10.0,NW,10.4,-,0.00,,Overcast,310,2013-05-24 04:28:00
12:51 AM,55.9,53.1,90,29.99,7.0,NNW,11.5,19.6,0.00,Rain,Light Rain,340,2013-05-24 04:51:00
1:47 AM,53.6,48.2,82,30.03,10.0,North,13.8,25.3,0.00,,Overcast,350,2013-05-24 05:47:00
1:51 AM,53.1,46.9,80,30.02,10.0,North,16.1,25.3,0.00,,Overcast,350,2013-05-24 05:51:00
2:51 AM,52.0,45.0,77,30.04,10.0,North,8.1,-,0.00,,Overcast,350,2013-05-24 06:51:00
3:51 AM,52.0,44.1,74,30.06,10.0,North,6.9,-,N/A,,Overcast,350,2013-05-24 07:51:00
4:51 AM,52.0,43.0,71,30.09,10.0,North,10.4,18.4,N/A,,Overcast,360,2013-05-24 08:51:00
5:51 AM,50.0,42.1,74,30.13,10.0,NNW,11.5,-,N/A,,Overcast,340,2013-05-24 09:51:00
6:51 AM,50.0,41.0,71,30.16,10.0,NNW,9.2,-,N/A,,Overcast,340,2013-05-24 10:51:00
7:29 AM,48.2,37.4,66,30.19,10.0,North,13.8,25.3,N/A,,Scattered Clouds,350,2013-05-24 11:29:00
7:51 AM,48.9,39.0,69,30.19,10.0,NNW,12.7,20.7,N/A,,Clear,340,2013-05-24 11:51:00
8:51 AM,50.0,39.0,66,30.21,10.0,NW,11.5,16.1,N/A,,Scattered Clouds,320,2013-05-24 12:51:00
9:51 AM,52.0,37.9,59,30.24,10.0,North,10.4,-,N/A,,Scattered Clouds,350,2013-05-24 13:51:00
10:51 AM,54.0,37.9,55,30.26,10.0,North,10.4,18.4,N/A,,Scattered Clouds,360,2013-05-24 14:51:00
11:51 AM,57.0,37.9,49,30.27,10.0,North,11.5,16.1,N/A,,Mostly Cloudy,350,2013-05-24 15:51:00
12:51 PM,57.9,37.0,46,30.28,10.0,NW,11.5,21.9,N/A,,Partly Cloudy,320,2013-05-24 16:51:00
1:51 PM,59.0,37.0,44,30.27,10.0,North,11.5,18.4,N/A,,Mostly Cloudy,360,2013-05-24 17:51:00
2:51 PM,60.1,37.0,42,30.27,10.0,NNW,12.7,21.9,N/A,,Partly Cloudy,330,2013-05-24 18:51:00
3:51 PM,62.1,36.0,38,30.26,10.0,North,11.5,16.1,N/A,,Clear,350,2013-05-24 19:51:00
4:51 PM,63.0,36.0,37,30.25,10.0,North,10.4,17.3,N/A,,Clear,360,2013-05-24 20:51:00
5:51 PM,64.0,36.0,35,30.25,10.0,NNW,10.4,18.4,N/A,,Partly Cloudy,340,2013-05-24 21:51:00
6:51 PM,63.0,35.1,35,30.25,10.0,North,12.7,16.1,N/A,,Clear,360,2013-05-24 22:51:00
7:51 PM,61.0,35.1,38,30.26,10.0,NNW,10.4,-,N/A,,Clear,340,2013-05-24 23:51:00
8:51 PM,57.0,37.0,47,30.25,10.0,North,4.6,-,N/A,,Clear,360,2013-05-25 00:51:00
9:51 PM,55.0,37.0,51,30.27,10.0,NNE,3.5,-,N/A,,Clear,30,2013-05-25 01:51:00
10:51 PM,52.0,39.0,61,30.29,10.0,Calm,Calm,-,N/A,,Clear,0,2013-05-25 02:51:00
11:51 PM,48.9,39.9,71,30.30,10.0,Calm,Calm,-,N/A,,Clear,0,2013-05-25 03:51:00